Time,TemperatureF,DewpointF,PressureIn,WindDirection,WindDirectionDegrees,WindSpeedMPH,WindSpeedGustMPH,Humidity,HourlyPrecipIn,Conditions,Clouds,dailyrainin,SoftwareType,DateUTC
2013-06-06 00:03:00,50.2,44.6,29.96,West,271,11.0,17.0,81,0.00,,,0.00,WeatherCatV1.14B232,2013-06-06 07:03:00,
2013-06-06 00:08:00,50.2,44.6,29.96,WSW,245,16.0,16.0,81,0.00,,,0.00,WeatherCatV1.14B232,2013-06-06 07:08:00,
2013-06-06 00:13:00,50.0,44.4,29.96,WSW,252,17.0,18.0,81,0.00,,,0.00,WeatherCatV1.14B232,2013-06-06 07:13:00,
2013-06-06 00:18:00,50.0,44.4,29.96,WSW,255,15.0,15.0,81,0.00,,,0.00,WeatherCatV1.14B232,2013-06-06 07:18:00,
2013-06-06 00:23:00,50.0,44.4,29.96,West,276,9.0,14.0,81,0.00,,,0.00,WeatherCatV1.14B232,2013-06-06 07:23:00,
2013-06-06 00:28:00,50.0,44.4,29.96,West,262,10.0,13.0,81,0.00,,,0.00,WeatherCatV1.14B232,2013-06-06 07:28:00,
2013-06-06 00:33:00,50.0,44.4,29.96,West,259,7.0,12.0,81,0.00,,,0.00,WeatherCatV1.14B232,2013-06-06 07:33:00,
2013-06-06 00:38:00,50.0,44.4,29.96,West,259,8.0,12.0,81,0.00,,,0.00,WeatherCatV1.14B232,2013-06-06 07:38:00,
2013-06-06 00:43:00,50.1,44.5,29.96,West,262,10.0,12.0,81,0.00,,,0.00,WeatherCatV1.14B232,2013-06-06 07:43:00,
2013-06-06 00:48:00,50.0,44.4,29.96,West,278,6.0,15.0,81,0.00,,,0.00,WeatherCatV1.14B232,2013-06-06 07:48:00,
2013-06-06 00:53:00,50.0,44.4,29.96,West,266,6.0,12.0,81,0.00,,,0.00,WeatherCatV1.14B232,2013-06-06 07:53:00,
2013-06-06 00:58:00,50.0,44.4,29.96,South,180,6.0,14.0,81,0.00,,,0.00,WeatherCatV1.14B232,2013-06-06 07:58:00,
2013-06-06 01:03:00,50.0,44.4,29.96,WNW,299,9.0,15.0,81,0.00,,,0.00,WeatherCatV1.14B232,2013-06-06 08:03:00,
2013-06-06 01:08:00,50.0,44.4,29.96,West,259,11.0,14.0,81,0.00,,,0.00,WeatherCatV1.14B232,2013-06-06 08:08:00,
2013-06-06 01:13:00,49.9,44.3,29.96,SW,228,10.0,12.0,81,0.00,,,0.00,WeatherCatV1.14B232,2013-06-06 08:13:00,
2013-06-06 01:18:00,49.9,44.3,29.95,West,275,7.0,14.0,81,0.00,,,0.00,WeatherCatV1.14B232,2013-06-06 08:18:00,
2013-06-06 01:23:00,50.0,44.4,29.95,WSW,256,9.0,14.0,81,0.00,,,0.00,WeatherCatV1.14B232,2013-06-06 08:23:00,
2013-06-06 01:28:00,50.0,44.4,29.95,West,263,6.0,10.0,81,0.00,,,0.00,WeatherCatV1.14B232,2013-06-06 08:28:00,
2013-06-06 01:33:00,50.1,44.5,29.95,West,271,10.0,15.0,81,0.00,,,0.00,WeatherCatV1.14B232,2013-06-06 08:33:00,
2013-06-06 01:38:00,50.0,44.4,29.95,West,275,5.0,12.0,81,0.00,,,0.00,WeatherCatV1.14B232,2013-06-06 08:38:00,
2013-06-06 01:43:00,50.1,44.5,29.95,West,262,8.0,9.0,81,0.00,,,0.00,WeatherCatV1.14B232,2013-06-06 08:43:00,
2013-06-06 01:48:00,50.1,44.5,29.95,WNW,285,9.0,13.0,81,0.00,,,0.00,WeatherCatV1.14B232,2013-06-06 08:48:00,
2013-06-06 01:53:00,50.1,44.5,29.95,WSW,253,10.0,12.0,81,0.00,,,0.00,WeatherCatV1.14B232,2013-06-06 08:53:00,
2013-06-06 01:58:00,50.0,44.4,29.95,West,274,11.0,13.0,81,0.00,,,0.00,WeatherCatV1.14B232,2013-06-06 08:58:00,
2013-06-06 02:03:00,50.1,44.5,29.95,WSW,257,10.0,15.0,81,0.00,,,0.00,WeatherCatV1.14B232,2013-06-06 09:03:00,
2013-06-06 02:08:00,50.1,44.5,29.95,WSW,240,9.0,11.0,81,0.00,,,0.00,WeatherCatV1.14B232,2013-06-06 09:08:00,
2013-06-06 02:13:00,50.2,44.6,29.95,West,274,6.0,11.0,81,0.00,,,0.00,WeatherCatV1.14B232,2013-06-06 09:13:00,
2013-06-06 02:18:00,50.2,44.6,29.95,West,259,6.0,14.0,81,0.00,,,0.00,WeatherCatV1.14B232,2013-06-06 09:18:00,
2013-06-06 02:23:00,50.2,44.6,29.94,WSW,255,9.0,12.0,81,0.00,,,0.00,WeatherCatV1.14B232,2013-06-06 09:23:00,
2013-06-06 02:28:00,50.1,44.5,29.94,WSW,250,7.0,10.0,81,0.00,,,0.00,WeatherCatV1.14B232,2013-06-06 09:28:00,
2013-06-06 02:33:00,49.9,44.3,29.94,WSW,256,10.0,15.0,81,0.00,,,0.00,WeatherCatV1.14B232,2013-06-06 09:33:00,
2013-06-06 02:38:00,49.8,44.2,29.95,West,273,6.0,11.0,81,0.00,,,0.00,WeatherCatV1.14B232,2013-06-06 09:38:00,
2013-06-06 02:43:00,49.9,44.3,29.95,WSW,252,7.0,12.0,81,0.00,,,0.00,WeatherCatV1.14B232,2013-06-06 09:43:00,
2013-06-06 02:48:00,49.8,44.2,29.95,WSW,252,9.0,10.0,81,0.00,,,0.00,WeatherCatV1.14B232,2013-06-06 09:48:00,
2013-06-06 02:53:00,49.6,44.0,29.94,WSW,248,10.0,11.0,81,0.00,,,0.00,WeatherCatV1.14B232,2013-06-06 09:53:00,
2013-06-06 02:58:00,49.6,44.0,29.95,West,271,10.0,12.0,81,0.00,,,0.00,WeatherCatV1.14B232,2013-06-06 09:58:00,
2013-06-06 03:03:00,49.6,44.0,29.94,West,267,6.0,10.0,81,0.00,,,0.00,WeatherCatV1.14B232,2013-06-06 10:03:00,
2013-06-06 03:08:00,49.5,43.9,29.94,West,266,7.0,11.0,81,0.00,,,0.00,WeatherCatV1.14B232,2013-06-06 10:08:00,
2013-06-06 03:13:00,49.5,43.9,29.94,West,271,7.0,11.0,81,0.00,,,0.00,WeatherCatV1.14B232,2013-06-06 10:13:00,
2013-06-06 03:18:00,49.4,43.8,29.94,West,267,5.0,12.0,81,0.00,,,0.00,WeatherCatV1.14B232,2013-06-06 10:18:00,
2013-06-06 03:23:00,49.5,43.9,29.94,West,259,8.0,10.0,81,0.00,,,0.00,WeatherCatV1.14B232,2013-06-06 10:23:00,
2013-06-06 03:28:00,49.6,44.0,29.94,West,264,7.0,10.0,81,0.00,,,0.00,WeatherCatV1.14B232,2013-06-06 10:28:00,
2013-06-06 03:33:00,49.4,43.8,29.94,WSW,255,8.0,13.0,81,0.00,,,0.00,WeatherCatV1.14B232,2013-06-06 10:33:00,
2013-06-06 03:38:00,49.4,43.8,29.94,WSW,244,5.0,10.0,81,0.00,,,0.00,WeatherCatV1.14B232,2013-06-06 10:38:00,
2013-06-06 03:43:00,49.5,43.9,29.94,WSW,250,8.0,12.0,81,0.00,,,0.00,WeatherCatV1.14B232,2013-06-06 10:43:00,
2013-06-06 03:48:00,49.4,43.8,29.94,West,278,3.0,6.0,81,0.00,,,0.00,WeatherCatV1.14B232,2013-06-06 10:48:00,
2013-06-06 03:53:00,49.5,43.9,29.94,West,269,6.0,9.0,81,0.00,,,0.00,WeatherCatV1.14B232,2013-06-06 10:53:00,
2013-06-06 03:58:00,49.4,43.8,29.93,WSW,249,7.0,12.0,81,0.00,,,0.00,WeatherCatV1.14B232,2013-06-06 10:58:00,
2013-06-06 04:03:00,49.4,43.8,29.93,West,264,9.0,12.0,81,0.00,,,0.00,WeatherCatV1.14B232,2013-06-06 11:03:00,
2013-06-06 04:08:00,49.5,43.9,29.94,WSW,256,8.0,11.0,81,0.00,,,0.00,WeatherCatV1.14B232,2013-06-06 11:08:00,
2013-06-06 04:13:00,49.5,43.9,29.94,West,268,5.0,9.0,81,0.00,,,0.00,WeatherCatV1.14B232,2013-06-06 11:13:00,
2013-06-06 04:18:00,49.5,43.9,29.94,WSW,243,8.0,9.0,81,0.00,,,0.00,WeatherCatV1.14B232,2013-06-06 11:18:00,
2013-06-06 04:23:00,49.6,44.0,29.94,West,278,6.0,9.0,81,0.00,,,0.00,WeatherCatV1.14B232,2013-06-06 11:23:00,
2013-06-06 04:29:00,49.7,44.1,29.94,WSW,253,7.0,8.0,81,0.00,,,0.00,WeatherCatV1.14B232,2013-06-06 11:29:00,
2013-06-06 04:34:00,49.6,44.0,29.94,West,271,5.0,11.0,81,0.00,,,0.00,WeatherCatV1.14B232,2013-06-06 11:34:00,
2013-06-06 04:39:00,49.6,44.0,29.94,WSW,255,8.0,8.0,81,0.00,,,0.00,WeatherCatV1.14B232,2013-06-06 11:39:00,
2013-06-06 04:44:00,49.7,44.1,29.94,West,265,7.0,9.0,81,0.00,,,0.00,WeatherCatV1.14B232,2013-06-06 11:44:00,
2013-06-06 04:49:00,49.7,44.1,29.94,WSW,256,7.0,7.0,81,0.00,,,0.00,WeatherCatV1.14B232,2013-06-06 11:49:00,
2013-06-06 04:54:00,49.7,44.1,29.94,West,264,5.0,11.0,81,0.00,,,0.00,WeatherCatV1.14B232,2013-06-06 11:54:00,
2013-06-06 04:59:00,49.5,43.9,29.94,West,262,7.0,8.0,81,0.00,,,0.00,WeatherCatV1.14B232,2013-06-06 11:59:00,
2013-06-06 05:04:00,49.5,43.9,29.94,WSW,244,7.0,8.0,81,0.00,,,0.00,WeatherCatV1.14B232,2013-06-06 12:04:00,
2013-06-06 05:09:00,49.5,43.9,29.94,West,267,7.0,12.0,81,0.00,,,0.00,WeatherCatV1.14B232,2013-06-06 12:09:00,
2013-06-06 05:14:00,49.3,43.7,29.94,West,264,5.0,12.0,81,0.00,,,0.00,WeatherCatV1.14B232,2013-06-06 12:14:00,
2013-06-06 05:19:00,49.4,43.8,29.94,WSW,252,6.0,14.0,81,0.00,,,0.00,WeatherCatV1.14B232,2013-06-06 12:19:00,
2013-06-06 05:24:00,49.2,43.6,29.95,WSW,252,9.0,11.0,81,0.00,,,0.00,WeatherCatV1.14B232,2013-06-06 12:24:00,
2013-06-06 05:29:00,49.1,43.5,29.95,West,264,7.0,11.0,81,0.00,,,0.00,WeatherCatV1.14B232,2013-06-06 12:29:00,
2013-06-06 05:34:00,49.1,43.5,29.94,WSW,255,9.0,11.0,81,0.00,,,0.00,WeatherCatV1.14B232,2013-06-06 12:34:00,
2013-06-06 05:39:00,49.1,43.5,29.95,West,266,5.0,8.0,81,0.00,,,0.00,WeatherCatV1.14B232,2013-06-06 12:39:00,
2013-06-06 05:44:00,49.2,43.6,29.94,West,263,6.0,11.0,81,0.00,,,0.00,WeatherCatV1.14B232,2013-06-06 12:44:00,
2013-06-06 05:49:00,49.2,43.6,29.95,West,266,7.0,11.0,81,0.00,,,0.00,WeatherCatV1.14B232,2013-06-06 12:49:00,
2013-06-06 05:54:00,49.2,43.6,29.95,SW,232,11.0,11.0,81,0.00,,,0.00,WeatherCatV1.14B232,2013-06-06 12:54:00,
2013-06-06 05:59:00,49.2,43.6,29.95,West,274,5.0,10.0,81,0.00,,,0.00,WeatherCatV1.14B232,2013-06-06 12:59:00,
2013-06-06 06:04:00,49.3,43.7,29.95,SW,236,9.0,11.0,81,0.00,,,0.00,WeatherCatV1.14B232,2013-06-06 13:04:00,
2013-06-06 06:09:00,49.2,43.6,29.95,WSW,249,10.0,13.0,81,0.00,,,0.00,WeatherCatV1.14B232,2013-06-06 13:09:00,
2013-06-06 06:14:00,49.3,43.7,29.95,WSW,247,7.0,14.0,81,0.00,,,0.00,WeatherCatV1.14B232,2013-06-06 13:14:00,
2013-06-06 06:19:00,49.3,43.7,29.95,WSW,257,4.0,10.0,81,0.00,,,0.00,WeatherCatV1.14B232,2013-06-06 13:19:00,
2013-06-06 06:24:00,49.4,43.8,29.95,WNW,287,4.0,11.0,81,0.00,,,0.00,WeatherCatV1.14B232,2013-06-06 13:24:00,
2013-06-06 06:29:00,49.4,43.8,29.95,West,267,7.0,10.0,81,0.00,,,0.00,WeatherCatV1.14B232,2013-06-06 13:29:00,
2013-06-06 06:34:00,49.4,43.8,29.95,West,264,6.0,7.0,81,0.00,,,0.00,WeatherCatV1.14B232,2013-06-06 13:34:00,
2013-06-06 06:39:00,49.5,43.9,29.95,WSW,253,8.0,12.0,81,0.00,,,0.00,WeatherCatV1.14B232,2013-06-06 13:39:00,
2013-06-06 06:44:00,49.6,44.0,29.95,West,270,6.0,9.0,81,0.00,,,0.00,WeatherCatV1.14B232,2013-06-06 13:44:00,
2013-06-06 06:49:00,49.7,44.1,29.95,WSW,252,7.0,7.0,81,0.00,,,0.00,WeatherCatV1.14B232,2013-06-06 13:49:00,
2013-06-06 06:54:00,49.7,44.1,29.95,West,270,5.0,10.0,81,0.00,,,0.00,WeatherCatV1.14B232,2013-06-06 13:54:00,
2013-06-06 06:59:00,49.7,44.1,29.95,WSW,256,6.0,11.0,81,0.00,,,0.00,WeatherCatV1.14B232,2013-06-06 13:59:00,
2013-06-06 07:04:00,49.8,44.2,29.95,West,276,4.0,11.0,81,0.00,,,0.00,WeatherCatV1.14B232,2013-06-06 14:04:00,
2013-06-06 07:09:00,49.8,44.2,29.95,WSW,240,11.0,11.0,81,0.00,,,0.00,WeatherCatV1.14B232,2013-06-06 14:09:00,
2013-06-06 07:14:00,49.7,44.1,29.95,West,259,6.0,9.0,81,0.00,,,0.00,WeatherCatV1.14B232,2013-06-06 14:14:00,
2013-06-06 07:19:00,49.8,44.2,29.95,West,262,6.0,6.0,81,0.00,,,0.00,WeatherCatV1.14B232,2013-06-06 14:19:00,
2013-06-06 07:24:00,49.8,44.2,29.95,West,274,7.0,12.0,81,0.00,,,0.00,WeatherCatV1.14B232,2013-06-06 14:24:00,
2013-06-06 07:29:00,49.9,44.3,29.95,WSW,253,4.0,8.0,81,0.00,,,0.00,WeatherCatV1.14B232,2013-06-06 14:29:00,
2013-06-06 07:34:00,50.0,44.4,29.95,WSW,257,3.0,7.0,81,0.00,,,0.00,WeatherCatV1.14B232,2013-06-06 14:34:00,
2013-06-06 07:39:00,50.0,44.4,29.95,WSW,252,5.0,10.0,81,0.00,,,0.00,WeatherCatV1.14B232,2013-06-06 14:39:00,
2013-06-06 07:44:00,49.9,44.3,29.95,West,269,4.0,10.0,81,0.00,,,0.00,WeatherCatV1.14B232,2013-06-06 14:44:00,
2013-06-06 07:49:00,49.8,44.2,29.96,West,275,7.0,9.0,81,0.00,,,0.00,WeatherCatV1.14B232,2013-06-06 14:49:00,
2013-06-06 07:54:00,49.9,44.3,29.96,WSW,257,6.0,9.0,81,0.00,,,0.00,WeatherCatV1.14B232,2013-06-06 14:54:00,
2013-06-06 07:59:00,49.9,44.3,29.96,West,268,7.0,10.0,81,0.00,,,0.00,WeatherCatV1.14B232,2013-06-06 14:59:00,
2013-06-06 08:04:00,49.9,44.3,29.96,West,261,4.0,8.0,81,0.00,,,0.00,WeatherCatV1.14B232,2013-06-06 15:04:00,
2013-06-06 08:09:00,50.0,44.4,29.96,West,264,5.0,10.0,81,0.00,,,0.00,WeatherCatV1.14B232,2013-06-06 15:09:00,
2013-06-06 08:14:00,50.0,44.4,29.96,West,263,7.0,9.0,81,0.00,,,0.00,WeatherCatV1.14B232,2013-06-06 15:14:00,
2013-06-06 08:19:00,50.1,44.5,29.96,West,264,8.0,12.0,81,0.00,,,0.00,WeatherCatV1.14B232,2013-06-06 15:19:00,
2013-06-06 08:24:00,50.1,44.5,29.97,WSW,252,7.0,10.0,81,0.00,,,0.00,WeatherCatV1.14B232,2013-06-06 15:24:00,
2013-06-06 08:29:00,50.2,44.6,29.97,West,266,7.0,9.0,81,0.00,,,0.00,WeatherCatV1.14B232,2013-06-06 15:29:00,
2013-06-06 08:34:00,50.3,44.7,29.97,WSW,257,5.0,7.0,81,0.00,,,0.00,WeatherCatV1.14B232,2013-06-06 15:34:00,
2013-06-06 08:39:00,50.4,44.8,29.97,West,259,6.0,6.0,81,0.00,,,0.00,WeatherCatV1.14B232,2013-06-06 15:39:00,
2013-06-06 08:44:00,50.5,44.9,29.97,WSW,255,9.0,9.0,81,0.00,,,0.00,WeatherCatV1.14B232,2013-06-06 15:44:00,
2013-06-06 08:49:00,50.6,45.0,29.97,West,268,4.0,6.0,81,0.00,,,0.00,WeatherCatV1.14B232,2013-06-06 15:49:00,
2013-06-06 08:54:00,50.8,45.2,29.97,WSW,256,6.0,9.0,81,0.00,,,0.00,WeatherCatV1.14B232,2013-06-06 15:54:00,
2013-06-06 08:59:00,50.7,45.1,29.97,West,263,6.0,10.0,81,0.00,,,0.00,WeatherCatV1.14B232,2013-06-06 15:59:00,
2013-06-06 09:04:00,50.6,45.0,29.97,WSW,257,9.0,11.0,81,0.00,,,0.00,WeatherCatV1.14B232,2013-06-06 16:04:00,
2013-06-06 09:09:00,50.7,45.1,29.97,West,264,5.0,11.0,81,0.00,,,0.00,WeatherCatV1.14B232,2013-06-06 16:09:00,
2013-06-06 09:14:00,50.9,45.3,29.97,West,271,7.0,10.0,81,0.00,,,0.00,WeatherCatV1.14B232,2013-06-06 16:14:00,
2013-06-06 09:19:00,50.9,45.3,29.97,West,268,8.0,9.0,81,0.00,,,0.00,WeatherCatV1.14B232,2013-06-06 16:19:00,
2013-06-06 09:24:00,51.0,45.4,29.97,West,264,8.0,10.0,81,0.00,,,0.00,WeatherCatV1.14B232,2013-06-06 16:24:00,
2013-06-06 09:29:00,51.2,45.6,29.97,West,271,5.0,8.0,81,0.00,,,0.00,WeatherCatV1.14B232,2013-06-06 16:29:00,
2013-06-06 09:34:00,51.1,45.5,29.97,West,270,4.0,9.0,81,0.00,,,0.00,WeatherCatV1.14B232,2013-06-06 16:34:00,
2013-06-06 09:39:00,51.3,45.7,29.97,West,269,4.0,7.0,81,0.00,,,0.00,WeatherCatV1.14B232,2013-06-06 16:39:00,
2013-06-06 09:44:00,51.4,45.8,29.97,SSW,193,4.0,8.0,81,0.00,,,0.00,WeatherCatV1.14B232,2013-06-06 16:44:00,
2013-06-06 09:49:00,51.5,45.9,29.97,West,261,7.0,9.0,81,0.00,,,0.00,WeatherCatV1.14B232,2013-06-06 16:49:00,
2013-06-06 09:54:00,51.8,46.2,29.97,WSW,256,4.0,8.0,81,0.00,,,0.00,WeatherCatV1.14B232,2013-06-06 16:54:00,
2013-06-06 09:59:00,51.9,46.3,29.96,West,268,7.0,10.0,81,0.00,,,0.00,WeatherCatV1.14B232,2013-06-06 16:59:00,
2013-06-06 10:04:00,52.1,46.1,29.97,West,259,7.0,9.0,80,0.00,,,0.00,WeatherCatV1.14B232,2013-06-06 17:04:00,
2013-06-06 10:09:00,52.2,46.2,29.96,WSW,252,9.0,10.0,80,0.00,,,0.00,WeatherCatV1.14B232,2013-06-06 17:09:00,
2013-06-06 10:14:00,52.4,46.4,29.96,West,266,6.0,10.0,80,0.00,,,0.00,WeatherCatV1.14B232,2013-06-06 17:14:00,
2013-06-06 10:19:00,52.2,46.2,29.96,WSW,254,8.0,11.0,80,0.00,,,0.00,WeatherCatV1.14B232,2013-06-06 17:19:00,
2013-06-06 10:24:00,52.4,46.4,29.96,West,261,7.0,12.0,80,0.00,,,0.00,WeatherCatV1.14B232,2013-06-06 17:24:00,
2013-06-06 10:29:00,52.3,46.3,29.96,WSW,237,10.0,11.0,80,0.00,,,0.00,WeatherCatV1.14B232,2013-06-06 17:29:00,
2013-06-06 10:34:00,52.5,46.5,29.96,West,273,8.0,11.0,80,0.00,,,0.00,WeatherCatV1.14B232,2013-06-06 17:34:00,
2013-06-06 10:39:00,52.7,46.7,29.96,West,269,9.0,11.0,80,0.00,,,0.00,WeatherCatV1.14B232,2013-06-06 17:39:00,
2013-06-06 10:44:00,52.8,46.5,29.96,West,263,7.0,11.0,79,0.00,,,0.00,WeatherCatV1.14B232,2013-06-06 17:44:00,
2013-06-06 10:49:00,53.0,46.7,29.96,WSW,246,9.0,10.0,79,0.00,,,0.00,WeatherCatV1.14B232,2013-06-06 17:49:00,
2013-06-06 10:54:00,53.1,46.8,29.96,West,269,6.0,11.0,79,0.00,,,0.00,WeatherCatV1.14B232,2013-06-06 17:54:00,
2013-06-06 10:59:00,53.4,47.1,29.96,SW,219,7.0,11.0,79,0.00,,,0.00,WeatherCatV1.14B232,2013-06-06 17:59:00,
2013-06-06 11:04:00,53.8,47.4,29.96,WSW,240,7.0,10.0,79,0.00,,,0.00,WeatherCatV1.14B232,2013-06-06 18:04:00,
2013-06-06 11:09:00,54.1,47.4,29.96,SW,235,6.0,12.0,78,0.00,,,0.00,WeatherCatV1.14B232,2013-06-06 18:09:00,
2013-06-06 11:14:00,54.2,47.5,29.96,West,262,5.0,8.0,78,0.00,,,0.00,WeatherCatV1.14B232,2013-06-06 18:14:00,
2013-06-06 11:19:00,54.7,48.0,29.95,West,269,5.0,9.0,78,0.00,,,0.00,WeatherCatV1.14B232,2013-06-06 18:19:00,
2013-06-06 11:24:00,55.1,48.4,29.95,SSW,207,4.0,8.0,78,0.00,,,0.00,WeatherCatV1.14B232,2013-06-06 18:24:00,
2013-06-06 11:29:00,55.3,48.2,29.95,WNW,293,6.0,10.0,77,0.00,,,0.00,WeatherCatV1.14B232,2013-06-06 18:29:00,
2013-06-06 11:34:00,55.8,48.7,29.95,WSW,257,7.0,8.0,77,0.00,,,0.00,WeatherCatV1.14B232,2013-06-06 18:34:00,
2013-06-06 11:39:00,55.9,49.1,29.95,SW,226,4.0,7.0,78,0.00,,,0.00,WeatherCatV1.14B232,2013-06-06 18:39:00,
2013-06-06 11:44:00,56.3,49.5,29.95,WSW,252,7.0,12.0,78,0.00,,,0.00,WeatherCatV1.14B232,2013-06-06 18:44:00,
2013-06-06 11:49:00,56.5,50.1,29.95,West,270,8.0,11.0,79,0.00,,,0.00,WeatherCatV1.14B232,2013-06-06 18:49:00,
2013-06-06 11:54:00,57.1,50.3,29.95,West,267,8.0,11.0,78,0.00,,,0.00,WeatherCatV1.14B232,2013-06-06 18:54:00,
2013-06-06 11:59:00,57.4,50.9,29.95,WSW,243,5.0,12.0,79,0.00,,,0.00,WeatherCatV1.14B232,2013-06-06 18:59:00,
2013-06-06 12:04:00,57.7,51.6,29.95,SSW,204,9.0,12.0,80,0.00,,,0.00,WeatherCatV1.14B232,2013-06-06 19:04:00,
2013-06-06 12:09:00,57.8,51.7,29.95,SW,229,9.0,11.0,80,0.00,,,0.00,WeatherCatV1.14B232,2013-06-06 19:09:00,
2013-06-06 12:14:00,57.7,52.2,29.95,West,266,8.0,15.0,82,0.00,,,0.00,WeatherCatV1.14B232,2013-06-06 19:14:00,
2013-06-06 12:19:00,57.8,52.3,29.94,SW,226,10.0,16.0,82,0.00,,,0.00,WeatherCatV1.14B232,2013-06-06 19:19:00,
2013-06-06 12:24:00,58.3,52.8,29.94,West,259,7.0,14.0,82,0.00,,,0.00,WeatherCatV1.14B232,2013-06-06 19:24:00,
2013-06-06 12:29:00,59.5,54.3,29.95,WSW,256,12.0,14.0,83,0.00,,,0.00,WeatherCatV1.14B232,2013-06-06 19:29:00,
2013-06-06 12:34:00,59.4,53.6,29.94,West,281,7.0,14.0,81,0.00,,,0.00,WeatherCatV1.14B232,2013-06-06 19:34:00,
2013-06-06 12:39:00,59.5,53.7,29.94,WSW,250,11.0,14.0,81,0.00,,,0.00,WeatherCatV1.14B232,2013-06-06 19:39:00,
2013-06-06 12:44:00,59.8,53.6,29.94,WSW,240,14.0,16.0,80,0.00,,,0.00,WeatherCatV1.14B232,2013-06-06 19:44:00,
2013-06-06 12:49:00,59.5,53.0,29.94,WSW,252,8.0,17.0,79,0.00,,,0.00,WeatherCatV1.14B232,2013-06-06 19:49:00,
2013-06-06 12:54:00,59.6,53.1,29.94,West,266,6.0,14.0,79,0.00,,,0.00,WeatherCatV1.14B232,2013-06-06 19:54:00,
2013-06-06 12:59:00,59.8,53.6,29.94,West,260,9.0,15.0,80,0.00,,,0.00,WeatherCatV1.14B232,2013-06-06 19:59:00,
2013-06-06 13:04:00,59.9,53.4,29.94,West,276,10.0,13.0,79,0.00,,,0.00,WeatherCatV1.14B232,2013-06-06 20:04:00,
2013-06-06 13:09:00,60.3,54.1,29.94,WSW,250,14.0,15.0,80,0.00,,,0.00,WeatherCatV1.14B232,2013-06-06 20:09:00,
2013-06-06 13:14:00,60.2,54.0,29.93,SW,233,11.0,15.0,80,0.00,,,0.00,WeatherCatV1.14B232,2013-06-06 20:14:00,
2013-06-06 13:19:00,60.7,54.1,29.94,WSW,255,9.0,12.0,79,0.00,,,0.00,WeatherCatV1.14B232,2013-06-06 20:19:00,
2013-06-06 13:24:00,60.7,53.8,29.94,West,276,5.0,12.0,78,0.00,,,0.00,WeatherCatV1.14B232,2013-06-06 20:24:00,
2013-06-06 13:29:00,60.7,53.8,29.94,West,269,5.0,12.0,78,0.00,,,0.00,WeatherCatV1.14B232,2013-06-06 20:29:00,
2013-06-06 13:34:00,60.8,53.9,29.94,West,270,7.0,15.0,78,0.00,,,0.00,WeatherCatV1.14B232,2013-06-06 20:34:00,
2013-06-06 13:39:00,60.6,53.7,29.93,West,274,10.0,14.0,78,0.00,,,0.00,WeatherCatV1.14B232,2013-06-06 20:39:00,
2013-06-06 13:44:00,60.3,53.4,29.93,West,262,9.0,15.0,78,0.00,,,0.00,WeatherCatV1.14B232,2013-06-06 20:44:00,
2013-06-06 13:49:00,60.3,53.8,29.93,West,263,9.0,15.0,79,0.00,,,0.00,WeatherCatV1.14B232,2013-06-06 20:49:00,
2013-06-06 13:54:00,60.7,53.4,29.93,West,276,8.0,16.0,77,0.00,,,0.00,WeatherCatV1.14B232,2013-06-06 20:54:00,
2013-06-06 13:59:00,60.6,53.3,29.93,ESE,104,7.0,17.0,77,0.00,,,0.00,WeatherCatV1.14B232,2013-06-06 20:59:00,
2013-06-06 14:04:00,60.8,53.5,29.93,West,262,11.0,19.0,77,0.00,,,0.00,WeatherCatV1.14B232,2013-06-06 21:04:00,
2013-06-06 14:09:00,60.6,53.3,29.92,SW,225,10.0,16.0,77,0.00,,,0.00,WeatherCatV1.14B232,2013-06-06 21:09:00,
2013-06-06 14:14:00,60.6,53.3,29.92,SW,228,6.0,17.0,77,0.00,,,0.00,WeatherCatV1.14B232,2013-06-06 21:14:00,
2013-06-06 14:19:00,60.3,53.1,29.92,WSW,252,13.0,16.0,77,0.00,,,0.00,WeatherCatV1.14B232,2013-06-06 21:19:00,
2013-06-06 14:24:00,60.3,53.1,29.92,SW,236,11.0,17.0,77,0.00,,,0.00,WeatherCatV1.14B232,2013-06-06 21:24:00,
2013-06-06 14:29:00,60.7,53.4,29.92,West,272,11.0,13.0,77,0.00,,,0.00,WeatherCatV1.14B232,2013-06-06 21:29:00,
2013-06-06 14:34:00,60.5,53.2,29.92,West,260,9.0,14.0,77,0.00,,,0.00,WeatherCatV1.14B232,2013-06-06 21:34:00,
2013-06-06 14:39:00,60.2,53.0,29.92,SW,234,10.0,18.0,77,0.00,,,0.00,WeatherCatV1.14B232,2013-06-06 21:39:00,
2013-06-06 14:44:00,60.0,52.8,29.92,SSW,193,13.0,18.0,77,0.00,,,0.00,WeatherCatV1.14B232,2013-06-06 21:44:00,
2013-06-06 14:49:00,59.4,52.9,29.91,WSW,252,12.0,16.0,79,0.00,,,0.00,WeatherCatV1.14B232,2013-06-06 21:49:00,
2013-06-06 14:54:00,59.6,53.1,29.91,WSW,252,12.0,17.0,79,0.00,,,0.00,WeatherCatV1.14B232,2013-06-06 21:54:00,
2013-06-06 14:59:00,59.5,53.0,29.91,WSW,246,11.0,18.0,79,0.00,,,0.00,WeatherCatV1.14B232,2013-06-06 21:59:00,
2013-06-06 15:04:00,59.9,53.4,29.91,West,267,13.0,15.0,79,0.00,,,0.00,WeatherCatV1.14B232,2013-06-06 22:04:00,
2013-06-06 15:09:00,59.5,52.6,29.91,WSW,255,15.0,19.0,78,0.00,,,0.00,WeatherCatV1.14B232,2013-06-06 22:09:00,
2013-06-06 15:14:00,59.1,52.6,29.91,West,276,12.0,18.0,79,0.00,,,0.00,WeatherCatV1.14B232,2013-06-06 22:14:00,
2013-06-06 15:19:00,59.4,52.9,29.90,SSW,210,10.0,18.0,79,0.00,,,0.00,WeatherCatV1.14B232,2013-06-06 22:19:00,
2013-06-06 15:24:00,59.3,52.4,29.90,WSW,246,13.0,18.0,78,0.00,,,0.00,WeatherCatV1.14B232,2013-06-06 22:24:00,
2013-06-06 15:29:00,59.4,52.9,29.90,West,275,14.0,17.0,79,0.00,,,0.00,WeatherCatV1.14B232,2013-06-06 22:29:00,
2013-06-06 15:34:00,58.9,52.4,29.90,SW,232,17.0,20.0,79,0.00,,,0.00,WeatherCatV1.14B232,2013-06-06 22:34:00,
2013-06-06 15:39:00,59.1,52.2,29.90,WSW,251,18.0,19.0,78,0.00,,,0.00,WeatherCatV1.14B232,2013-06-06 22:39:00,
2013-06-06 15:44:00,59.3,52.4,29.90,WSW,257,15.0,20.0,78,0.00,,,0.00,WeatherCatV1.14B232,2013-06-06 22:44:00,
2013-06-06 15:49:00,59.1,52.2,29.89,WSW,248,12.0,17.0,78,0.00,,,0.00,WeatherCatV1.14B232,2013-06-06 22:49:00,
2013-06-06 15:54:00,59.2,52.3,29.89,West,264,12.0,17.0,78,0.00,,,0.00,WeatherCatV1.14B232,2013-06-06 22:54:00,
2013-06-06 15:59:00,59.7,52.5,29.89,WSW,255,12.0,17.0,77,0.00,,,0.00,WeatherCatV1.14B232,2013-06-06 22:59:00,
2013-06-06 16:04:00,59.9,53.0,29.89,SW,231,15.0,19.0,78,0.00,,,0.00,WeatherCatV1.14B232,2013-06-06 23:04:00,
2013-06-06 16:09:00,59.3,52.4,29.89,SW,221,11.0,17.0,78,0.00,,,0.00,WeatherCatV1.14B232,2013-06-06 23:09:00,
2013-06-06 16:14:00,59.3,52.4,29.89,WSW,252,10.0,18.0,78,0.00,,,0.00,WeatherCatV1.14B232,2013-06-06 23:14:00,
2013-06-06 16:19:00,59.3,52.4,29.89,WSW,253,9.0,15.0,78,0.00,,,0.00,WeatherCatV1.14B232,2013-06-06 23:19:00,
2013-06-06 16:24:00,59.4,52.5,29.89,WSW,248,13.0,16.0,78,0.00,,,0.00,WeatherCatV1.14B232,2013-06-06 23:24:00,
2013-06-06 16:29:00,59.9,52.7,29.88,WSW,250,17.0,19.0,77,0.00,,,0.00,WeatherCatV1.14B232,2013-06-06 23:29:00,
2013-06-06 16:34:00,59.6,54.1,29.88,WSW,243,17.0,17.0,82,0.00,,,0.00,WeatherCatV1.14B232,2013-06-06 23:34:00,
2013-06-06 16:39:00,59.6,52.4,29.88,WSW,252,12.0,18.0,77,0.00,,,0.00,WeatherCatV1.14B232,2013-06-06 23:39:00,
2013-06-06 16:44:00,59.3,52.4,29.88,SW,232,12.0,20.0,78,0.00,,,0.00,WeatherCatV1.14B232,2013-06-06 23:44:00,
2013-06-06 16:49:00,59.1,52.2,29.88,West,262,16.0,16.0,78,0.00,,,0.00,WeatherCatV1.14B232,2013-06-06 23:49:00,
2013-06-06 16:54:00,59.4,52.5,29.88,West,259,13.0,16.0,78,0.00,,,0.00,WeatherCatV1.14B232,2013-06-06 23:54:00,
2013-06-06 16:59:00,59.0,52.1,29.88,WSW,246,13.0,16.0,78,0.00,,,0.00,WeatherCatV1.14B232,2013-06-06 23:59:00,
2013-06-06 17:04:00,59.4,52.5,29.88,WSW,243,7.0,15.0,78,0.00,,,0.00,WeatherCatV1.14B232,2013-06-07 00:04:00,
2013-06-06 17:09:00,59.1,52.2,29.88,WSW,250,15.0,18.0,78,0.00,,,0.00,WeatherCatV1.14B232,2013-06-07 00:09:00,
2013-06-06 17:14:00,58.4,51.9,29.88,WSW,257,16.0,17.0,79,0.00,,,0.00,WeatherCatV1.14B232,2013-06-07 00:14:00,
2013-06-06 17:19:00,58.0,51.9,29.88,West,262,12.0,19.0,80,0.00,,,0.00,WeatherCatV1.14B232,2013-06-07 00:19:00,
2013-06-06 17:24:00,57.7,51.6,29.88,WSW,252,15.0,19.0,80,0.00,,,0.00,WeatherCatV1.14B232,2013-06-07 00:24:00,
2013-06-06 17:29:00,57.7,51.6,29.88,SW,234,12.0,20.0,80,0.00,,,0.00,WeatherCatV1.14B232,2013-06-07 00:29:00,
2013-06-06 17:34:00,57.7,51.6,29.88,WSW,244,16.0,20.0,80,0.00,,,0.00,WeatherCatV1.14B232,2013-06-07 00:34:00,
2013-06-06 17:39:00,57.6,51.8,29.88,SSW,197,12.0,17.0,81,0.00,,,0.00,WeatherCatV1.14B232,2013-06-07 00:39:00,
2013-06-06 17:44:00,57.5,51.7,29.88,WSW,253,17.0,20.0,81,0.00,,,0.00,WeatherCatV1.14B232,2013-06-07 00:44:00,
2013-06-06 17:49:00,57.4,51.6,29.88,WSW,256,19.0,19.0,81,0.00,,,0.00,WeatherCatV1.14B232,2013-06-07 00:49:00,
2013-06-06 17:54:00,57.0,51.2,29.87,West,269,14.0,18.0,81,0.00,,,0.00,WeatherCatV1.14B232,2013-06-07 00:54:00,
2013-06-06 17:59:00,56.7,50.9,29.87,SW,232,16.0,18.0,81,0.00,,,0.00,WeatherCatV1.14B232,2013-06-07 00:59:00,
2013-06-06 18:04:00,56.8,51.0,29.88,WSW,252,14.0,15.0,81,0.00,,,0.00,WeatherCatV1.14B232,2013-06-07 01:04:00,
2013-06-06 18:09:00,56.5,51.1,29.88,WSW,244,13.0,19.0,82,0.00,,,0.00,WeatherCatV1.14B232,2013-06-07 01:09:00,
2013-06-06 18:14:00,56.1,50.7,29.88,WSW,250,18.0,22.0,82,0.00,,,0.00,WeatherCatV1.14B232,2013-06-07 01:14:00,
2013-06-06 18:19:00,55.7,50.3,29.88,SW,236,14.0,17.0,82,0.00,,,0.00,WeatherCatV1.14B232,2013-06-07 01:19:00,
2013-06-06 18:24:00,55.5,50.1,29.88,WSW,240,15.0,19.0,82,0.00,,,0.00,WeatherCatV1.14B232,2013-06-07 01:24:00,
2013-06-06 18:29:00,55.2,49.8,29.88,WSW,250,16.0,20.0,82,0.00,,,0.00,WeatherCatV1.14B232,2013-06-07 01:29:00,
2013-06-06 18:34:00,55.2,49.8,29.88,WSW,238,10.0,18.0,82,0.00,,,0.00,WeatherCatV1.14B232,2013-06-07 01:34:00,
2013-06-06 18:39:00,55.0,49.6,29.88,WSW,250,17.0,18.0,82,0.00,,,0.00,WeatherCatV1.14B232,2013-06-07 01:39:00,
2013-06-06 18:44:00,54.9,49.5,29.88,WSW,248,17.0,18.0,82,0.00,,,0.00,WeatherCatV1.14B232,2013-06-07 01:44:00,
2013-06-06 18:49:00,54.5,49.1,29.88,WSW,253,16.0,19.0,82,0.00,,,0.00,WeatherCatV1.14B232,2013-06-07 01:49:00,
2013-06-06 18:54:00,54.3,48.9,29.88,West,268,14.0,20.0,82,0.00,,,0.00,WeatherCatV1.14B232,2013-06-07 01:54:00,
2013-06-06 18:59:00,54.4,49.0,29.87,WSW,245,11.0,19.0,82,0.00,,,0.00,WeatherCatV1.14B232,2013-06-07 01:59:00,
2013-06-06 19:04:00,54.3,48.6,29.87,West,261,14.0,19.0,81,0.00,,,0.00,WeatherCatV1.14B232,2013-06-07 02:04:00,
2013-06-06 19:09:00,54.1,48.4,29.88,WSW,251,14.0,20.0,81,0.00,,,0.00,WeatherCatV1.14B232,2013-06-07 02:09:00,
2013-06-06 19:14:00,54.1,48.4,29.87,WSW,240,14.0,16.0,81,0.00,,,0.00,WeatherCatV1.14B232,2013-06-07 02:14:00,
2013-06-06 19:19:00,53.9,47.9,29.87,WSW,240,12.0,16.0,80,0.00,,,0.00,WeatherCatV1.14B232,2013-06-07 02:19:00,
2013-06-06 19:24:00,53.8,47.8,29.87,WSW,246,16.0,17.0,80,0.00,,,0.00,WeatherCatV1.14B232,2013-06-07 02:24:00,
2013-06-06 19:29:00,53.7,47.7,29.87,WSW,250,13.0,17.0,80,0.00,,,0.00,WeatherCatV1.14B232,2013-06-07 02:29:00,
2013-06-06 19:34:00,53.7,47.3,29.88,WSW,248,13.0,18.0,79,0.00,,,0.00,WeatherCatV1.14B232,2013-06-07 02:34:00,
2013-06-06 19:39:00,53.4,47.1,29.88,WSW,243,16.0,19.0,79,0.00,,,0.00,WeatherCatV1.14B232,2013-06-07 02:39:00,
2013-06-06 19:44:00,53.3,46.6,29.88,WSW,246,11.0,16.0,78,0.00,,,0.00,WeatherCatV1.14B232,2013-06-07 02:44:00,
2013-06-06 19:49:00,53.3,46.6,29.88,WSW,246,14.0,16.0,78,0.00,,,0.00,WeatherCatV1.14B232,2013-06-07 02:49:00,
2013-06-06 19:54:00,53.1,46.4,29.88,WSW,248,18.0,20.0,78,0.00,,,0.00,WeatherCatV1.14B232,2013-06-07 02:54:00,
2013-06-06 19:59:00,52.9,46.2,29.88,WSW,253,11.0,19.0,78,0.00,,,0.00,WeatherCatV1.14B232,2013-06-07 02:59:00,
2013-06-06 20:04:00,52.7,45.7,29.88,West,263,13.0,18.0,77,0.00,,,0.00,WeatherCatV1.14B232,2013-06-07 03:04:00,
2013-06-06 20:09:00,52.5,45.5,29.88,NW,309,11.0,18.0,77,0.00,,,0.00,WeatherCatV1.14B232,2013-06-07 03:09:00,
2013-06-06 20:14:00,52.4,45.4,29.88,West,259,12.0,19.0,77,0.00,,,0.00,WeatherCatV1.14B232,2013-06-07 03:14:00,
2013-06-06 20:19:00,52.3,45.0,29.88,WSW,244,11.0,17.0,76,0.00,,,0.00,WeatherCatV1.14B232,2013-06-07 03:19:00,
2013-06-06 20:24:00,52.2,44.9,29.88,WSW,245,13.0,19.0,76,0.00,,,0.00,WeatherCatV1.14B232,2013-06-07 03:24:00,
2013-06-06 20:29:00,52.0,44.7,29.88,WSW,243,14.0,22.0,76,0.00,,,0.00,WeatherCatV1.14B232,2013-06-07 03:29:00,
2013-06-06 20:34:00,51.9,44.6,29.88,SW,236,15.0,19.0,76,0.00,,,0.00,WeatherCatV1.14B232,2013-06-07 03:34:00,
2013-06-06 20:39:00,51.9,44.2,29.88,WSW,248,12.0,15.0,75,0.00,,,0.00,WeatherCatV1.14B232,2013-06-07 03:39:00,
2013-06-06 20:44:00,51.8,44.1,29.88,WSW,248,10.0,21.0,75,0.00,,,0.00,WeatherCatV1.14B232,2013-06-07 03:44:00,
2013-06-06 20:49:00,51.7,44.0,29.89,West,262,15.0,21.0,75,0.00,,,0.00,WeatherCatV1.14B232,2013-06-07 03:49:00,
2013-06-06 20:54:00,51.6,43.9,29.88,WSW,256,14.0,20.0,75,0.00,,,0.00,WeatherCatV1.14B232,2013-06-07 03:54:00,
2013-06-06 20:59:00,51.5,43.8,29.89,WSW,250,15.0,16.0,75,0.00,,,0.00,WeatherCatV1.14B232,2013-06-07 03:59:00,
2013-06-06 21:01:00,51.5,43.8,29.89,WSW,252,14.0,19.0,75,0.00,,,0.00,WeatherCatV1.14B232,2013-06-07 04:01:00,
2013-06-06 21:02:00,51.5,43.8,29.89,WSW,240,14.0,18.0,75,0.00,,,0.00,WeatherCatV1.14B232,2013-06-07 04:02:00,
2013-06-06 21:06:00,51.4,43.7,29.89,West,261,16.0,17.0,75,0.00,,,0.00,WeatherCatV1.14B232,2013-06-07 04:06:00,
2013-06-06 21:11:00,51.4,43.7,29.89,West,261,16.0,18.0,75,0.00,,,0.00,WeatherCatV1.14B232,2013-06-07 04:11:00,
2013-06-06 21:16:00,51.4,43.7,29.89,West,261,10.0,20.0,75,0.00,,,0.00,WeatherCatV1.14B232,2013-06-07 04:16:00,
2013-06-06 21:21:00,51.4,43.7,29.89,West,259,17.0,19.0,75,0.00,,,0.00,WeatherCatV1.14B232,2013-06-07 04:21:00,
2013-06-06 21:26:00,51.4,43.7,29.89,West,259,12.0,20.0,75,0.00,,,0.00,WeatherCatV1.14B232,2013-06-07 04:26:00,
2013-06-06 21:31:00,51.3,43.6,29.89,WSW,246,22.0,22.0,75,0.00,,,0.00,WeatherCatV1.14B232,2013-06-07 04:31:00,
2013-06-06 21:36:00,51.3,43.6,29.89,SW,225,16.0,19.0,75,0.00,,,0.00,WeatherCatV1.14B232,2013-06-07 04:36:00,
2013-06-06 21:41:00,51.3,43.6,29.89,West,259,13.0,17.0,75,0.00,,,0.00,WeatherCatV1.14B232,2013-06-07 04:41:00,
2013-06-06 21:46:00,51.3,43.6,29.90,WSW,252,17.0,17.0,75,0.00,,,0.00,WeatherCatV1.14B232,2013-06-07 04:46:00,
2013-06-06 21:51:00,51.3,43.6,29.90,West,262,11.0,17.0,75,0.00,,,0.00,WeatherCatV1.14B232,2013-06-07 04:51:00,
2013-06-06 21:56:00,51.3,43.6,29.90,WSW,243,14.0,20.0,75,0.00,,,0.00,WeatherCatV1.14B232,2013-06-07 04:56:00,
2013-06-06 22:01:00,51.3,43.6,29.90,WSW,248,16.0,17.0,75,0.00,,,0.00,WeatherCatV1.14B232,2013-06-07 05:01:00,
2013-06-06 22:07:00,51.3,43.6,29.90,WSW,250,16.0,19.0,75,0.00,,,0.00,WeatherCatV1.14B232,2013-06-07 05:07:00,
2013-06-06 22:11:00,51.3,43.6,29.90,WSW,240,16.0,20.0,75,0.00,,,0.00,WeatherCatV1.14B232,2013-06-07 05:11:00,
2013-06-06 22:16:00,51.3,43.6,29.90,WSW,256,17.0,20.0,75,0.00,,,0.00,WeatherCatV1.14B232,2013-06-07 05:16:00,
2013-06-06 22:21:00,51.3,43.6,29.90,WNW,285,14.0,16.0,75,0.00,,,0.00,WeatherCatV1.14B232,2013-06-07 05:21:00,
2013-06-06 22:26:00,51.3,43.6,29.90,WNW,283,12.0,20.0,75,0.00,,,0.00,WeatherCatV1.14B232,2013-06-07 05:26:00,
2013-06-06 22:31:00,51.3,43.6,29.90,WSW,238,17.0,21.0,75,0.00,,,0.00,WeatherCatV1.14B232,2013-06-07 05:31:00,
2013-06-06 22:36:00,51.2,43.6,29.90,West,259,11.0,20.0,75,0.00,,,0.00,WeatherCatV1.14B232,2013-06-07 05:36:00,
2013-06-06 22:41:00,51.2,43.6,29.90,West,266,15.0,18.0,75,0.00,,,0.00,WeatherCatV1.14B232,2013-06-07 05:41:00,
2013-06-06 22:46:00,51.3,43.6,29.90,WSW,256,14.0,18.0,75,0.00,,,0.00,WeatherCatV1.14B232,2013-06-07 05:46:00,
2013-06-06 22:51:00,51.1,43.5,29.90,West,259,11.0,21.0,75,0.00,,,0.00,WeatherCatV1.14B232,2013-06-07 05:51:00,
2013-06-06 22:56:00,51.1,43.5,29.90,West,265,15.0,17.0,75,0.00,,,0.00,WeatherCatV1.14B232,2013-06-07 05:56:00,
2013-06-06 22:57:00,51.1,43.5,29.90,WSW,245,16.0,21.0,75,0.00,,,0.00,WeatherCatV1.14B232,2013-06-07 05:57:00,
2013-06-06 23:02:00,51.1,43.5,29.90,WSW,243,16.0,21.0,75,0.00,,,0.00,WeatherCatV1.14B232,2013-06-07 06:02:00,
2013-06-06 23:07:00,51.1,43.5,29.90,WNW,290,12.0,21.0,75,0.00,,,0.00,WeatherCatV1.14B232,2013-06-07 06:07:00,
2013-06-06 23:12:00,51.1,43.5,29.90,WSW,240,17.0,17.0,75,0.00,,,0.00,WeatherCatV1.14B232,2013-06-07 06:12:00,
2013-06-06 23:17:00,51.1,43.5,29.90,West,267,11.0,19.0,75,0.00,,,0.00,WeatherCatV1.14B232,2013-06-07 06:17:00,
2013-06-06 23:22:00,51.1,43.5,29.90,WSW,256,16.0,19.0,75,0.00,,,0.00,WeatherCatV1.14B232,2013-06-07 06:22:00,
2013-06-06 23:28:00,51.0,43.4,29.90,WSW,248,13.0,17.0,75,0.00,,,0.00,WeatherCatV1.14B232,2013-06-07 06:28:00,
2013-06-06 23:33:00,51.0,43.4,29.89,WSW,254,16.0,16.0,75,0.00,,,0.00,WeatherCatV1.14B232,2013-06-07 06:33:00,
2013-06-06 23:38:00,51.0,43.4,29.89,WSW,243,15.0,19.0,75,0.00,,,0.00,WeatherCatV1.14B232,2013-06-07 06:38:00,
2013-06-06 23:43:00,50.9,43.3,29.89,WSW,258,12.0,19.0,75,0.00,,,0.00,WeatherCatV1.14B232,2013-06-07 06:43:00,
2013-06-06 23:48:00,50.8,43.2,29.89,WSW,252,14.0,16.0,75,0.00,,,0.00,WeatherCatV1.14B232,2013-06-07 06:48:00,
2013-06-06 23:55:00,50.9,43.3,29.90,West,267,10.0,16.0,75,0.00,,,0.00,WeatherCatV1.14B232,2013-06-07 06:55:00,